Temp
-13 -13 -14 -14 -14 -15 -15 -15 -15 -15 -15 -15 -15 -15 -15 -15 -15 -15 -15 -15 -15 -15 -15 -16 -16 -16 -16 -16 -16 -17 -17 -18
-13 -13 -13 -14 -15 -15 -15 -15 -15 -15 -15 -15 -15 -15 -14 -14 -14 -15 -15 -15 -15 -15 -15 -16 -16 -16 -16 -16 -16 -17 -18 -18
-14 -14 -14 -14 -15 -15 -15 -15 -14 -15 -15 -14 -14 -14 -14 -14 -14 -15 -15 -15 -15 -15 -15 -16 -16 -16 -16 -17 -17 -17 -18 -18
-15 -15 -14 -14 -15 -15 -15 -15 -15 -14 -14 -14 -14 -14 -14 -14 -14 -15 -15 -15 -15 -15 -16 -16 -16 -17 -17 -18 -18 -18 -18 -19
-15 -15 -15 -14 -15 -15 -15 -15 -14 -14 -14 -14 -14 -14 -14 -15 -15 -15 -15 -15 -16 -16 -16 -17 -17 -18 -18 -18 -18 -19 -19 -19
-14 -15 -15 -15 -15 -14 -14 -14 -14 -14 -14 -14 -14 -15 -15 -15 -15 -15 -15 -15 -16 -16 -17 -17 -18 -18 -18 -19 -19 -19 -19 -19
-14 -14 -14 -15 -15 -14 -14 -14 -15 -14 -15 -15 -15 -15 -15 -15 -15 -15 -15 -16 -16 -16 -17 -17 -17 -17 -18 -18 -19 -19 -20 -20
-14 -14 -14 -14 -14 -14 -14 -14 -15 -15 -15 -15 -15 -15 -15 -15 -16 -16 -16 -17 -17 -17 -17 -18 -18 -19 -19 -19 -19 -20 -20 -20
-14 -14 -14 -14 -14 -14 -14 -14 -14 -15 -15 -15 -15 -15 -16 -16 -16 -16 -17 -17 -18 -18 -19 -19 -19 -20 -20 -20 -20 -20 -21 -21
-14 -14 -14 -14 -14 -14 -14 -14 -14 -15 -15 -16 -16 -16 -17 -17 -17 -18 -18 -18 -19 -20 -19 -19 -20 -20 -20 -20 -20 -21 -21 -21
-14 -14 -14 -14 -14 -15 -15 -15 -15 -15 -15 -16 -16 -17 -17 -17 -18 -18 -18 -19 -19 -20 -20 -20 -20 -21 -21 -21 -21 -21 -21 -21
-14 -14 -14 -14 -15 -15 -15 -15 -15 -15 -16 -16 -17 -17 -18 -18 -18 -19 -19 -20 -20 -20 -20 -21 -21 -21 -21 -21 -21 -21 -22 -22
-15 -14 -14 -14 -15 -15 -15 -15 -16 -16 -17 -17 -18 -18 -18 -18 -19 -19 -19 -19 -20 -20 -20 -20 -21 -21 -21 -21 -22 -22 -22 -23
-15 -15 -15 -15 -15 -14 -14 -15 -15 -17 -18 -18 -18 -18 -18 -19 -19 -19 -20 -20 -20 -21 -21 -21 -21 -21 -21 -22 -22 -22 -24 -24
-15 -15 -15 -15 -15 -16 -16 -17 -17 -18 -18 -18 -18 -19 -19 -19 -20 -20 -20 -20 -21 -21 -21 -21 -21 -21 -22 -22 -23 -23 -24 -24
-15 -15 -16 -16 -16 -17 -17 -17 -18 -18 -18 -19 -19 -19 -19 -20 -20 -20 -21 -21 -21 -21 -21 -22 -22 -22 -23 -23 -24 -24 -24 -26
-16 -16 -16 -16 -17 -17 -17 -18 -18 -18 -19 -19 -19 -19 -20 -20 -21 -21 -21 -21 -21 -22 -22 -22 -22 -23 -23 -24 -24 -25 -26 -27
-16 -16 -16 -17 -17 -17 -17 -18 -18 -18 -19 -19 -20 -20 -20 -21 -21 -21 -21 -21 -21 -22 -22 -22 -23 -23 -25 -25 -26 -27 -27 -29
-16 -16 -17 -17 -17 -17 -18 -18 -18 -18 -19 -19 -20 -20 -21 -21 -21 -21 -22 -22 -22 -22 -22 -23 -24 -25 -26 -27 -27 -29 -29 -30
Height
5794 5797 5798 5798 5798 5797 5798 5798 5797 5796 5795 5796 5795 5794 5793 5791 5788 5785 5784 5782 5781 5779 5774 5771 5768 5763 5758 5754 5750 5743 5739 5736
5792 5792 5794 5795 5794 5794 5793 5793 5794 5794 5794 5793 5790 5790 5788 5785 5782 5782 5778 5776 5775 5771 5767 5762 5758 5753 5748 5743 5738 5733 5729 5724
5792 5789 5791 5792 5793 5791 5792 5792 5791 5789 5789 5788 5787 5785 5784 5781 5779 5775 5772 5770 5766 5762 5758 5754 5748 5742 5737 5733 5728 5722 5717 5711
5791 5790 5787 5790 5790 5790 5790 5788 5787 5786 5784 5783 5782 5781 5778 5775 5773 5770 5767 5762 5758 5753 5749 5744 5739 5733 5726 5721 5715 5710 5705 5699
5789 5790 5787 5786 5787 5786 5785 5785 5783 5781 5781 5780 5777 5775 5773 5770 5767 5764 5758 5753 5750 5746 5740 5734 5728 5721 5715 5710 5704 5698 5691 5686
5786 5787 5785 5782 5782 5782 5782 5780 5780 5779 5778 5775 5771 5769 5767 5765 5761 5757 5754 5748 5742 5736 5729 5724 5718 5712 5705 5698 5692 5685 5677 5671
5778 5780 5781 5781 5779 5777 5777 5777 5776 5772 5771 5768 5765 5762 5758 5754 5749 5743 5737 5731 5726 5720 5715 5709 5703 5695 5688 5681 5674 5667 5660 5653
5774 5775 5777 5776 5776 5775 5774 5774 5772 5769 5764 5762 5758 5753 5749 5743 5737 5732 5726 5720 5715 5709 5701 5694 5687 5681 5674 5667 5659 5652 5645 5637
5774 5775 5775 5774 5774 5772 5770 5768 5766 5762 5758 5754 5749 5744 5738 5732 5726 5721 5715 5709 5701 5695 5688 5682 5676 5668 5661 5654 5647 5639 5631 5622
5772 5771 5772 5771 5769 5767 5763 5759 5757 5754 5751 5747 5741 5734 5728 5723 5717 5711 5705 5698 5691 5684 5679 5670 5662 5655 5647 5639 5632 5624 5614 5604
5768 5767 5766 5765 5762 5759 5755 5751 5748 5744 5741 5738 5731 5725 5719 5712 5707 5701 5694 5686 5679 5673 5666 5657 5648 5641 5633 5625 5618 5608 5598 5587
5761 5760 5759 5758 5756 5753 5748 5742 5738 5733 5729 5725 5718 5712 5707 5700 5694 5688 5681 5675 5667 5659 5652 5644 5635 5627 5618 5610 5601 5592 5581 5569
5755 5752 5750 5748 5746 5742 5738 5734 5729 5725 5720 5713 5707 5700 5695 5689 5682 5675 5668 5661 5653 5645 5637 5630 5621 5613 5603 5592 5583 5574 5564 5551
5748 5745 5742 5739 5734 5729 5725 5720 5716 5712 5706 5700 5694 5689 5683 5676 5669 5662 5656 5648 5640 5632 5623 5615 5607 5598 5587 5575 5566 5555 5543 5532
5738 5735 5732 5726 5722 5719 5715 5712 5708 5702 5696 5690 5684 5678 5671 5663 5656 5649 5641 5633 5626 5618 5608 5600 5590 5581 5570 5557 5546 5537 5527 5514
5729 5725 5723 5719 5716 5713 5708 5704 5697 5690 5684 5678 5672 5664 5657 5650 5642 5634 5627 5619 5611 5602 5592 5583 5573 5563 5552 5540 5528 5519 5508 5496
5721 5718 5715 5712 5708 5703 5698 5692 5685 5679 5671 5665 5657 5651 5644 5636 5628 5621 5613 5604 5596 5585 5574 5565 5556 5545 5534 5522 5511 5499 5487 5476
5714 5709 5705 5701 5696 5690 5685 5680 5673 5665 5658 5651 5645 5638 5630 5622 5615 5607 5598 5588 5579 5569 5558 5548 5538 5527 5516 5505 5492 5481 5471 5461
5705 5701 5695 5689 5683 5677 5671 5664 5657 5652 5645 5639 5631 5624 5616 5608 5600 5591 5582 5573 5564 5554 5542 5530 5520 5510 5498 5487 5476 5465 5455 5446
Wind_Speed
2 3 5 2 4 6 10 13 15 17 18 19 20 22 22 21 22 22 24 25 26 29 32 34 36 38 41 42 45 47 47 47
3 5 2 4 9 11 12 16 17 20 18 18 20 19 19 21 25 26 29 31 33 36 38 39 40 42 45 48 48 49 50 49
10 12 10 8 9 16 16 20 22 18 17 14 15 17 21 24 27 29 33 36 38 41 43 44 45 48 50 51 51 51 53 53
14 16 19 17 17 19 18 20 19 14 14 15 19 21 24 27 30 32 36 39 42 45 47 47 49 50 52 53 53 54 55 55
14 18 23 23 23 19 20 15 12 13 16 19 23 25 28 31 35 37 41 44 46 48 49 49 50 52 54 54 54 55 57 55
13 16 21 24 23 17 12 13 14 18 20 24 28 31 34 37 40 43 45 49 51 52 53 51 51 52 53 54 54 57 56 57
16 13 13 15 19 17 15 17 19 24 27 30 34 37 42 45 48 50 53 55 56 57 58 58 58 59 61 62 62 61 60 63
16 12 8 8 13 15 18 21 23 28 33 35 39 43 46 49 52 54 55 56 57 58 60 59 62 62 63 64 64 63 64 68
11 10 9 12 16 21 25 27 28 31 36 39 42 46 49 52 55 55 57 57 58 59 59 59 63 65 65 65 64 64 67 72
14 15 16 19 21 25 29 32 33 36 38 40 44 47 49 52 52 54 56 56 57 50 57 67 68 70 68 65 64 68 73 77
19 20 22 24 26 29 33 36 39 42 43 43 47 49 51 52 53 55 56 58 57 54 57 64 67 69 68 66 70 75 80 83
24 26 27 28 30 31 35 40 44 47 48 47 49 49 50 53 56 58 60 54 60 58 59 64 67 67 68 71 76 80 86 89
27 30 33 34 36 39 40 41 44 44 45 45 47 48 51 56 59 60 60 61 62 59 61 70 67 68 73 77 82 85 89 90
30 34 37 40 43 43 42 46 49 46 46 52 56 55 57 58 59 59 59 62 63 64 67 67 67 71 74 76 82 88 84 78
37 39 41 44 36 36 41 44 45 51 53 56 55 55 55 55 57 58 60 61 59 71 68 72 80 86 83 82 83 84 81 87
43 44 43 31 36 39 44 49 53 54 56 55 53 54 55 56 58 60 61 60 62 66 67 74 83 84 82 85 83 82 88 81
46 48 42 38 33 53 51 54 55 55 55 54 55 56 57 59 60 61 61 62 64 67 75 82 85 87 88 83 84 85 78 69
46 47 48 50 51 53 54 54 53 53 53 54 55 56 57 59 59 61 66 70 72 72 79 83 84 84 79 85 84 77 71 61
44 46 49 51 52 54 53 53 54 55 56 57 57 57 57 58 59 62 69 75 79 83 86 85 81 83 82 75 71 65 60 55
Wind_Direction
260 170 144 201 261 312 305 314 308 305 310 310 309 308 305 306 307 312 315 316 316 314 316 314 313 314 315 315 315 318 316 312
295 275 275 313 314 299 312 306 303 304 306 304 306 302 309 317 317 317 318 314 314 316 316 315 314 314 314 316 316 314 310 307
320 312 316 325 311 300 303 297 305 309 308 308 308 313 313 313 315 317 312 312 314 315 314 314 314 314 313 314 312 311 309 307
314 316 318 324 310 305 302 301 301 303 314 312 304 306 312 312 312 310 308 310 312 312 312 313 313 312 311 311 310 308 308 306
313 310 309 313 312 306 306 302 303 307 301 296 301 307 309 310 307 308 309 309 307 307 310 311 311 312 309 308 307 306 306 303
320 307 296 305 304 300 294 292 298 296 297 301 304 309 307 306 306 303 301 302 305 308 310 310 307 305 304 305 305 305 304 304
323 317 300 286 288 292 295 297 302 302 304 305 307 306 306 306 306 306 306 307 309 309 308 306 306 307 308 309 309 309 308 309
314 319 303 290 287 291 294 298 301 300 305 306 306 306 306 306 306 306 307 309 308 307 307 308 310 310 308 309 309 308 309 309
300 294 296 300 298 298 296 298 300 302 303 306 306 305 305 304 305 306 307 309 308 309 308 306 309 309 308 308 308 309 309 311
290 299 300 300 298 297 299 301 303 303 305 306 305 303 302 303 304 305 307 306 306 309 293 298 302 306 306 307 308 310 311 312
291 292 294 296 299 301 301 302 305 305 306 306 305 301 303 303 303 305 304 305 305 304 298 301 304 304 305 306 308 310 311 311
293 293 293 295 298 300 302 303 304 306 308 308 302 301 302 304 304 304 304 299 302 303 303 303 303 304 305 306 307 309 311 309
295 295 296 299 301 298 298 300 302 305 305 299 298 298 299 301 302 302 303 303 302 302 295 300 302 304 304 304 304 306 307 306
296 297 299 303 300 296 301 305 309 308 299 302 306 305 304 303 303 303 303 302 303 305 303 303 305 307 307 304 302 304 304 306
298 301 308 307 295 292 293 295 296 303 304 302 306 305 303 302 302 303 302 304 306 301 303 305 306 306 304 300 301 302 305 312
305 306 308 289 286 284 289 298 300 303 302 305 303 302 302 303 302 303 305 304 304 301 304 306 303 301 301 304 305 304 312 323
300 299 295 293 275 300 301 301 302 303 303 304 304 305 304 303 304 303 305 303 302 304 306 306 303 303 304 303 304 318 322 322
289 293 296 299 302 301 300 302 302 302 303 304 304 303 304 304 305 304 305 304 305 306 304 302 300 300 302 309 319 321 321 317
292 296 298 300 301 302 304 303 303 304 304 304 305 306 305 304 302 301 302 299 301 301 300 304 304 304 315 319 320 319 316 314